Regional Weather Roundup
Issued by NWS

Home | Current Version | Previous Version | Text Only | Print | Product List | Glossary Off
Versions: 1 2 3 4 5 6 7 8 9 10 11 12 13 14 15 16 17 18 19 20 21 22 23 24 25 26 27 28 29 30 31 32 33 34 35 36 37 38 39 40 41 42 43 44 45 46 47

000
ASUS43 KDMX 281607
RWRIA

WEATHER ROUNDUP FOR IOWA
NATIONAL WEATHER SERVICE DES MOINES IA
1000 AM CST SUN DEC 28 2014

NOTE: "FAIR" INDICATES FEW OR NO CLOUDS BELOW 12,000 FEET WITH NO
SIGNIFICANT WEATHER AND/OR OBSTRUCTIONS TO VISIBILITY.

* - THESE STATIONS ARE NOT NWS STATIONS...THUS NOT UNDER NWS
QUALITY CONTROL.  THEY ALSO DO NOT REPORT WEATHER SUCH
AS PRECIPITATION OR FOG.

IAZ001>003-012>014-020>022-031>034-043>046-281700-
   NORTHWEST IOWA

CITY           SKY/WX    TMP DP  RH WIND       PRES   REMARKS
CARROLL *      SUNNY     19  16  86 W5        30.15R WCI  13
CHEROKEE *     SUNNY     10  10 100 CALM      30.15R
DENISON *      SUNNY     18  16  93 W5        30.13R WCI  11
LE MARS *      SUNNY      9   7  92 CALM      30.16R
ORANGE CITY *  SUNNY     12   9  85 CALM      30.12R
SHELDON *      SUNNY      9   7  92 CALM      30.12R
SIOUX CITY     SUNNY     12  11  95 CALM      30.16R
SPENCER        SUNNY     11   8  88 CALM      30.14R
STORM LAKE *   SUNNY     12   9  85 SW7       30.14R WCI   2
$$

IAZ055>058-069>071-079>083-090>094-281700-
   SOUTHWEST IOWA

CITY           SKY/WX    TMP DP  RH WIND       PRES   REMARKS
ATLANTIC *     SUNNY     21  18  86 SW6       30.15S WCI  14
AUDUBON *      SUNNY     19  14  79 W3        30.14R
CLARINDA *     SUNNY     25  21  86 SW5       30.19F WCI  19
COUNCIL BLFS * SUNNY     21  18  86 SW6       30.14R WCI  14
CRESTON *      SUNNY     23  19  86 SW8       30.16S WCI  14
HARLAN  *      SUNNY     19  21 100 SW3       30.18S
LAMONI         SUNNY     23  20  88 S9        30.17S WCI  13
RED OAK *      SUNNY     23  19  86 SW7       30.17S WCI  15
SHENANDOAH *   SUNNY     25  21  86 SW7       30.18F WCI  17
$$

IAZ047>049-059>061-072>074-084-281700-
   CENTRAL IOWA

CITY           SKY/WX    TMP DP  RH WIND       PRES   REMARKS
AMES           SUNNY     23  18  81 W9        30.17R WCI  13
ANKENY *       SUNNY     23  19  86 W5        30.19R WCI  17
CHARITON *     SUNNY     25  21  86 S8        30.18S WCI  16
DES MOINES     MOSUNNY   23  18  81 SW6       30.18R WCI  16
GRINNELL*      SUNNY     23  19  86 S7        30.18S WCI  15
KNOXVILLE *    SUNNY     25  19  80 S6        30.18R WCI  18
MARSHALLTOWN   SUNNY     20  17  88 SW5       30.16R WCI  13
PELLA *        SUNNY     25  21  86 S6        30.20S WCI  18
PERRY *          N/A     23  19  86 W3        30.17S
$$

IAZ004>006-015-016-023>025-035-036-281700-
   NORTH CENTRAL IOWA

CITY           SKY/WX    TMP DP  RH WIND       PRES   REMARKS
ALGONA *       SUNNY     12   9  85 SW3       30.15R
CLARION *      SUNNY     12  10  92 CALM      30.16R
ESTHERVILLE    SUNNY     13   9  84 NW7       30.13R WCI   3
FORT DODGE *   SUNNY     16  12  86 W3        30.17R
MASON CITY     SUNNY     12   7  80 CALM      30.16R
FOREST CITY *  SUNNY     14  10  85 SW3       30.14R
IOWA FALLS *     N/A     23  18  80 CALM      30.16R
$$

IAZ007>011-017>019-026>030-037>042-050>054-066-281700-
   NORTHEAST IOWA

CITY           SKY/WX    TMP DP  RH WIND       PRES   REMARKS
CEDAR RAPIDS   SUNNY     22  19  89 SW5       30.19R WCI  16
CHARLES CITY * SUNNY     18  14  86 SW5       30.16R WCI  11
CLINTON *      SUNNY     21  18  86 W3        30.24R
DECORAH *      SUNNY     19  16  86 CALM      30.14S
DUBUQUE        SUNNY     20  16  84 SW9       30.18R WCI   9
MONTICELLO *   SUNNY     23  18  80 W5        30.20R WCI  17
OELWEIN *      SUNNY     19  16  86 S7        30.17R WCI  10
WATERLOO       SUNNY     20  16  84 SW5       30.18R WCI  13
$$

IAZ064-065-067-068-078-281700-
   EAST CENTRAL IOWA

CITY           SKY/WX    TMP DP  RH WIND       PRES   REMARKS
DAVENPORT      SUNNY     22  16  78 SW7       30.22R WCI  13
IOWA CITY      SUNNY     22  18  85 W5        30.23R WCI  16
MT. PLEASANT * SUNNY     25  19  80 SW8       30.23S WCI  16
MUSCATINE *    SUNNY     25  19  80 SW6       30.24S WCI  18
QUAD CITIES    SUNNY     24  17  74 W6        30.23R WCI  17
$$

IAZ062-063-075>077-085>089-095>099-281700-
   SOUTHEAST IOWA

CITY           SKY/WX    TMP DP  RH WIND       PRES   REMARKS
BURLINGTON     SUNNY     26  21  81 SW7       30.23R WCI  18
FAIRFIELD *    SUNNY     25  19  80 SW6       30.22S WCI  18
FORT MADISON * SUNNY     28  21  74 SW6       30.24S WCI  22
KEOKUK *       SUNNY     28  21  74 SW5       30.24S WCI  23
OSKALOOSA *      N/A     23  19  86 SW5       30.21S WCI  17
CENTERVILLE *  SUNNY     25  21  86 S7        30.21R WCI  17
OTTUMWA        SUNNY     24  20  84 SW6       30.20S WCI  17
WASHINGTON *   SUNNY     25  21  86 SW8       30.22R WCI  16
$$

ABBREVIATIONS USED IN REMARKS
   TC - TEMPERATURES IN CELSIUS
  WCI - WIND CHILL INDEX
   HX - HEAT INDEX
  VSB - VISIBILITY
$$



USA.gov is the U.S. government's official web portal to all federal, state and local government web resources and services.